Location: Eboldshausen
(51.7766°N, 10.0050°E)
Time: 06:34:13
(UTC+00:00)

SAR-Lupe-4 - Pass Details

Date: 15 November 2025
Orbit: 476 x 483 km, 98.1° (Epoch: 03 October)

Event Time Altitude Azimuth Distance (km) Brightness Sun altitude
Rises 15:59:50 0° 143° (SE) 2,539 7.1 -5.0°
Reaches altitude 10° 16:01:59 10° 135° (SE) 1,663 6.1 -5.3°
Maximum altitude 16:05:17 36° 68° (ENE) 778 4.1 -5.8°
Drops below altitude 10° 16:08:37 10° 0° (N) 1,673 6.1 -6.3°
Sets 16:10:46 0° 352° (N) 2,557 7.1 -6.6°
